EW9692 Weather Reports


time (UTC)temp
C
wind
direction
speed
KPH
gust
KPH
rain 1hr
cm
rain 24hr
cm
rain mn
cm
humidity
%
barometer
mb
20260507171538 27 260 1.6 11.3 0.00 0.00 0.00 20 1011.5
20260507170041 27 5 1.6 6.4 0.00 0.00 0.00 21 1011.7
20260507164527 26 290 1.6 8.0 0.00 0.00 0.00 23 1011.9
20260507163022 26 322 3.2 8.0 0.00 0.00 0.00 24 1012.0
20260507161518 25 340 1.6 6.4 0.00 0.00 0.00 25 1012.0
20260507160015 25 10 1.6 6.4 0.00 0.00 0.00 24 1012.2
20260507154509 25 360 1.6 6.4 0.00 0.00 0.00 23 1012.1
20260507153008 23 76 1.6 6.4 0.00 0.00 0.00 26 1012.2
20260507151600 23 42 1.6 6.4 0.00 0.00 0.00 28 1012.3
20260507150056 22 59 1.6 4.8 0.00 0.00 0.00 29 1012.2
20260507144552 21 58 0.0 4.8 0.00 0.00 0.00 31 1012.3
20260507143048 20 49 0.0 3.2 0.00 0.00 0.00 32 1012.3
20260507141543 19 61 0.0 3.2 0.00 0.00 0.00 33 1012.5
20260507140043 18 344 0.0 3.2 0.00 0.00 0.00 35 1012.3
20260507134536 18 269 3.2 6.4 0.00 0.00 0.00 34 1012.0
20260507133030 17 292 1.6 4.8 0.00 0.00 0.00 35 1011.9
20260507131534 17 273 1.6 4.8 0.00 0.00 0.00 35 1011.7
20260507130020 17 347 0.0 0.0 0.00 0.00 0.00 36 1011.6
20260507124516 17 49 0.0 1.6 0.00 0.00 0.00 34 1011.8
20260507123014 17 139 0.0 3.2 0.00 0.00 0.00 34 1011.8
20260507121513 17 241 1.6 4.8 0.00 0.00 0.00 33 1011.4
20260507120023 18 265 0.0 4.8 0.00 0.00 0.00 33 1011.5
20260507114509 18 265 1.6 4.8 0.00 0.00 0.00 32 1011.6
20260507113007 19 311 1.6 4.8 0.00 0.00 0.00 31 1011.8
20260507111509 19 342 0.0 1.6 0.00 0.00 0.00 29 1011.9
20260507110006 19 342 0.0 1.6 0.00 0.00 0.00 29 1011.8
20260507104510 19 342 0.0 1.6 0.00 0.00 0.00 29 1011.8
20260507103006 19 343 0.0 1.6 0.00 0.00 0.00 30 1011.9
20260507101504 19 343 0.0 6.4 0.00 0.00 0.00 30 1012.1
20260507100002 19 154 0.0 0.0 0.00 0.00 0.00 31 1012.1
20260507094500 18 154 0.0 0.0 0.00 0.00 0.00 31 1012.3
20260507093100 18 154 0.0 0.0 0.00 0.00 0.00 32 1012.4
20260507091600 18 154 0.0 0.0 0.00 0.00 0.00 31 1012.4
20260507090058 19 154 0.0 3.2 0.00 0.00 0.00 32 1012.6
20260507084557 19 154 0.0 9.7 0.00 0.00 0.00 32 1012.7
20260507083056 18 157 3.2 6.4 0.00 0.00 0.00 32 1012.7
20260507081600 18 228 3.2 4.8 0.00 0.00 0.00 32 1012.8
20260507080051 19 233 0.0 3.2 0.00 0.00 0.00 33 1012.8
20260507074600 20 240 0.0 0.0 0.00 0.00 0.00 30 1012.8
20260507073045 20 240 0.0 3.2 0.00 0.00 0.00 29 1012.7
20260507071542 21 241 0.0 1.6 0.00 0.00 0.00 29 1012.7
20260507070042 21 241 0.0 1.6 0.00 0.00 0.00 26 1012.8
20260507064540 21 241 0.0 1.6 0.00 0.00 0.00 27 1012.8
20260507063040 20 241 0.0 3.2 0.00 0.00 0.00 27 1012.7
20260507061542 20 241 0.0 6.4 0.00 0.00 0.00 27 1012.7
20260507060039 21 232 0.0 1.6 0.00 0.00 0.00 29 1012.8
20260507054548 21 232 0.0 0.0 0.00 0.00 0.00 27 1012.6
20260507053038 21 231 0.0 0.0 0.00 0.00 0.00 29 1012.7
20260507051537 21 232 0.0 0.0 0.00 0.00 0.00 26 1012.7
20260507050036 21 232 0.0 0.0 0.00 0.00 0.00 26 1012.6
20260507044539 21 232 0.0 0.0 0.00 0.00 0.00 26 1012.6
20260507043035 22 232 0.0 1.6 0.00 0.00 0.00 26 1012.5
20260507041534 22 232 0.0 0.0 0.00 0.00 0.00 25 1012.4
20260507040036 22 232 0.0 0.0 0.00 0.00 0.00 24 1012.3
20260507034533 23 232 0.0 0.0 0.00 0.00 0.00 24 1012.1
20260507033034 23 232 0.0 0.0 0.00 0.00 0.00 23 1011.9
20260507031533 24 232 0.0 1.6 0.00 0.00 0.00 22 1011.7
20260507030035 24 231 0.0 4.8 0.00 0.00 0.00 21 1011.5
20260507024533 25 231 0.0 1.6 0.00 0.00 0.00 20 1011.3
20260507023032 25 231 0.0 0.0 0.00 0.00 0.00 20 1011.2
20260507021530 26 231 0.0 1.6 0.00 0.00 0.00 19 1011.1
20260507020029 26 221 1.6 9.7 0.00 0.00 0.00 18 1010.9
20260507014542 27 269 1.6 12.9 0.00 0.00 0.00 18 1010.9
20260507013028 27 222 0.0 8.0 0.00 0.00 0.00 17 1011.0
20260507011529 27 337 0.0 3.2 0.00 0.00 0.00 18 1011.1
20260507010032 27 275 1.6 9.7 0.00 0.00 0.00 18 1011.0
20260507004525 27 310 1.6 11.3 0.00 0.00 0.00 18 1011.0
20260507003025 27 22 3.2 9.7 0.00 0.00 0.00 17 1010.9
20260507001527 27 346 0.0 12.9 0.00 0.00 0.00 18 1010.8
20260507000032 27 5 8.0 16.1 0.00 0.00 0.00 18 1010.9
20260506234522 27 350 4.8 9.7 0.00 0.00 0.00 17 1010.9
20260506233020 27 315 3.2 16.1 0.00 0.00 0.00 17 1011.0
20260506231518 27 355 6.4 12.9 0.00 0.00 0.00 17 1011.3
20260506230017 27 311 3.2 12.9 0.00 0.00 0.00 17 1011.6
20260506224514 27 239 3.2 14.5 0.00 0.00 0.00 18 1011.8
20260506223013 27 279 4.8 14.5 0.00 0.00 0.00 19 1011.9
20260506221511 27 304 4.8 16.1 0.00 0.00 0.00 19 1012.0
20260506220019 27 273 3.2 11.3 0.00 0.00 0.00 19 1012.1
20260506214508 26 304 1.6 16.1 0.00 0.00 0.00 20 1012.3
20260506213007 26 304 4.8 14.5 0.00 0.00 0.00 21 1012.7
20260506211508 26 341 1.6 12.9 0.00 0.00 0.00 19 1012.9
20260506210009 26 266 1.6 8.0 0.00 0.00 0.00 20 1013.0
20260506204504 26 284 8.0 22.5 0.00 0.00 0.00 22 1013.3
20260506203004 26 240 0.0 11.3 0.00 0.00 0.00 20 1013.3
20260506201502 25 267 4.8 16.1 0.00 0.00 0.00 22 1013.6
20260506200058 25 247 1.6 11.3 0.00 0.00 0.00 21 1013.6
20260506194623 25 61 0.0 8.0 0.00 0.00 0.00 21 1013.7
20260506193104 24 313 4.8 16.1 0.00 0.00 0.00 23 1014.0
20260506191554 24 347 8.0 16.1 0.00 0.00 0.00 22 1014.2
20260506190052 23 236 1.6 17.7 0.00 0.00 0.00 25 1014.3
20260506184551 23 21 4.8 16.1 0.00 0.00 0.00 24 1014.8
20260506183050 23 267 1.6 14.5 0.00 0.00 0.00 23 1014.9
20260506181545 23 325 4.8 12.9 0.00 0.00 0.00 27 1015.1
20260506180055 22 9 0.0 12.9 0.00 0.00 0.00 29 1015.0
20260506174544 23 314 1.6 8.0 0.00 0.00 0.00 28 1015.0
20260506173038 22 12 1.6 6.4 0.00 0.00 0.00 29 1015.0